Time,TemperatureF,DewpointF,PressureIn,WindDirection,WindDirectionDegrees,WindSpeedMPH,WindSpeedGustMPH,Humidity,HourlyPrecipIn,Conditions,Clouds,dailyrainin,SoftwareType,DateUTC
2013-06-16 00:01:00,58.0,40.0,26.93,ESE,112,0.0,5.0,50,0.00,,,0.00,Rainwise IP-100,2013-06-16 06:01:00,
2013-06-16 00:06:00,57.0,39.0,26.94,SE,135,1.0,3.0,52,0.00,,,0.00,Rainwise IP-100,2013-06-16 06:06:00,
2013-06-16 00:11:00,57.0,39.0,26.94,SE,135,3.0,6.0,52,0.00,,,0.00,Rainwise IP-100,2013-06-16 06:11:00,
2013-06-16 00:16:00,57.0,40.0,26.94,ESE,112,3.0,6.0,53,0.00,,,0.00,Rainwise IP-100,2013-06-16 06:16:00,
2013-06-16 00:21:00,57.0,40.0,26.94,ESE,112,1.0,4.0,53,0.00,,,0.00,Rainwise IP-100,2013-06-16 06:21:00,
2013-06-16 00:26:00,57.0,40.0,26.95,SE,135,3.0,6.0,54,0.00,,,0.00,Rainwise IP-100,2013-06-16 06:26:00,
2013-06-16 00:31:00,56.0,39.0,26.95,SE,135,2.0,5.0,54,0.00,,,0.00,Rainwise IP-100,2013-06-16 06:31:00,
2013-06-16 00:36:00,56.0,40.0,26.95,SSE,157,4.0,5.0,55,0.00,,,0.00,Rainwise IP-100,2013-06-16 06:36:00,
2013-06-16 00:41:00,56.0,40.0,26.95,SSW,202,0.0,4.0,56,0.00,,,0.00,Rainwise IP-100,2013-06-16 06:41:00,
2013-06-16 00:46:00,55.0,40.0,26.96,ENE,67,3.0,3.0,57,0.00,,,0.00,Rainwise IP-100,2013-06-16 06:46:00,
2013-06-16 00:51:00,55.0,41.0,26.96,East,90,1.0,4.0,58,0.00,,,0.00,Rainwise IP-100,2013-06-16 06:51:00,
2013-06-16 00:56:00,55.0,41.0,26.96,SE,135,3.0,4.0,58,0.00,,,0.00,Rainwise IP-100,2013-06-16 06:56:00,
2013-06-16 01:01:00,55.0,41.0,26.96,ESE,112,3.0,4.0,58,0.00,,,0.00,Rainwise IP-100,2013-06-16 07:01:00,
2013-06-16 01:06:00,55.0,41.0,26.96,ESE,112,2.0,4.0,58,0.00,,,0.00,Rainwise IP-100,2013-06-16 07:06:00,
2013-06-16 01:10:00,54.0,40.0,26.96,ENE,67,1.0,3.0,59,0.00,,,0.00,Rainwise IP-100,2013-06-16 07:10:00,
2013-06-16 01:15:00,54.0,40.0,26.97,ESE,112,0.0,7.0,59,0.00,,,0.00,Rainwise IP-100,2013-06-16 07:15:00,
2013-06-16 01:20:00,55.0,41.0,26.97,SE,135,3.0,6.0,59,0.00,,,0.00,Rainwise IP-100,2013-06-16 07:20:00,
2013-06-16 01:25:00,55.0,41.0,26.96,ENE,67,2.0,6.0,58,0.00,,,0.00,Rainwise IP-100,2013-06-16 07:25:00,
2013-06-16 01:30:00,55.0,41.0,26.96,ESE,112,4.0,7.0,58,0.00,,,0.00,Rainwise IP-100,2013-06-16 07:30:00,
2013-06-16 01:35:00,55.0,40.0,26.96,ESE,112,2.0,9.0,57,0.00,,,0.00,Rainwise IP-100,2013-06-16 07:35:00,
2013-06-16 01:40:00,54.0,39.0,26.96,ESE,112,2.0,6.0,58,0.00,,,0.00,Rainwise IP-100,2013-06-16 07:40:00,
2013-06-16 01:45:00,55.0,41.0,26.97,East,90,1.0,6.0,58,0.00,,,0.00,Rainwise IP-100,2013-06-16 07:45:00,
2013-06-16 01:50:00,54.0,40.0,26.97,East,90,3.0,7.0,59,0.00,,,0.00,Rainwise IP-100,2013-06-16 07:50:00,
2013-06-16 01:55:00,55.0,41.0,26.97,East,90,2.0,6.0,58,0.00,,,0.00,Rainwise IP-100,2013-06-16 07:55:00,
2013-06-16 02:00:00,54.0,40.0,26.97,SE,135,1.0,6.0,59,0.00,,,0.00,Rainwise IP-100,2013-06-16 08:00:00,
2013-06-16 02:05:00,54.0,40.0,26.98,SE,135,2.0,4.0,59,0.00,,,0.00,Rainwise IP-100,2013-06-16 08:05:00,
2013-06-16 02:10:00,53.0,39.0,26.98,East,90,1.0,4.0,61,0.00,,,0.00,Rainwise IP-100,2013-06-16 08:10:00,
2013-06-16 02:15:00,53.0,39.0,26.98,ENE,67,1.0,5.0,61,0.00,,,0.00,Rainwise IP-100,2013-06-16 08:15:00,
2013-06-16 02:20:00,53.0,40.0,26.98,ENE,67,2.0,5.0,63,0.00,,,0.00,Rainwise IP-100,2013-06-16 08:20:00,
2013-06-16 02:25:00,53.0,41.0,26.98,ENE,67,1.0,3.0,64,0.00,,,0.00,Rainwise IP-100,2013-06-16 08:25:00,
2013-06-16 02:30:00,52.0,40.0,26.98,SE,135,2.0,3.0,65,0.00,,,0.00,Rainwise IP-100,2013-06-16 08:30:00,
2013-06-16 02:35:00,51.0,40.0,26.98,ESE,112,2.0,3.0,67,0.00,,,0.00,Rainwise IP-100,2013-06-16 08:35:00,
2013-06-16 02:40:00,51.0,40.0,26.99,ESE,112,0.0,2.0,67,0.00,,,0.00,Rainwise IP-100,2013-06-16 08:40:00,
2013-06-16 02:45:00,50.0,39.0,26.99,ESE,112,0.0,0.0,67,0.00,,,0.00,Rainwise IP-100,2013-06-16 08:45:00,
2013-06-16 02:50:00,50.0,40.0,27.00,ESE,112,2.0,4.0,69,0.00,,,0.00,Rainwise IP-100,2013-06-16 08:50:00,
2013-06-16 02:55:00,50.0,40.0,27.00,SSE,157,1.0,3.0,69,0.00,,,0.00,Rainwise IP-100,2013-06-16 08:55:00,
2013-06-16 03:00:00,50.0,40.0,27.00,SE,135,0.0,2.0,70,0.00,,,0.00,Rainwise IP-100,2013-06-16 09:00:00,
2013-06-16 03:05:00,49.0,40.0,27.00,SE,135,0.0,0.0,71,0.00,,,0.00,Rainwise IP-100,2013-06-16 09:05:00,
2013-06-16 03:10:00,49.0,40.0,27.01,SE,135,0.0,0.0,71,0.00,,,0.00,Rainwise IP-100,2013-06-16 09:10:00,
2013-06-16 03:15:00,49.0,40.0,27.01,East,90,1.0,3.0,72,0.00,,,0.00,Rainwise IP-100,2013-06-16 09:15:00,
2013-06-16 03:20:00,48.0,39.0,27.01,East,90,0.0,2.0,71,0.00,,,0.00,Rainwise IP-100,2013-06-16 09:20:00,
2013-06-16 03:25:00,48.0,40.0,27.01,East,90,0.0,0.0,73,0.00,,,0.00,Rainwise IP-100,2013-06-16 09:25:00,
2013-06-16 03:30:00,48.0,40.0,27.01,ENE,67,0.0,3.0,73,0.00,,,0.00,Rainwise IP-100,2013-06-16 09:30:00,
2013-06-16 03:35:00,47.0,38.0,27.01,NE,45,3.0,3.0,72,0.00,,,0.00,Rainwise IP-100,2013-06-16 09:35:00,
2013-06-16 03:40:00,48.0,41.0,27.01,NE,45,1.0,3.0,75,0.00,,,0.00,Rainwise IP-100,2013-06-16 09:40:00,
2013-06-16 03:45:00,48.0,41.0,27.01,NW,315,0.0,3.0,75,0.00,,,0.00,Rainwise IP-100,2013-06-16 09:45:00,
2013-06-16 03:50:00,47.0,39.0,27.01,NW,315,0.0,2.0,74,0.00,,,0.00,Rainwise IP-100,2013-06-16 09:50:00,
2013-06-16 03:53:00,47.0,39.0,27.01,NW,315,0.0,0.0,74,0.00,,,0.00,Rainwise IP-100,2013-06-16 09:53:00,
2013-06-16 03:58:00,47.0,39.0,27.02,NW,315,0.0,0.0,76,0.00,,,0.00,Rainwise IP-100,2013-06-16 09:58:00,
2013-06-16 04:03:00,47.0,39.0,27.02,ENE,67,0.0,3.0,76,0.00,,,0.00,Rainwise IP-100,2013-06-16 10:03:00,
2013-06-16 04:08:00,47.0,39.0,27.02,ENE,67,0.0,0.0,76,0.00,,,0.00,Rainwise IP-100,2013-06-16 10:08:00,
2013-06-16 04:13:00,47.0,40.0,27.02,ENE,67,0.0,0.0,77,0.00,,,0.00,Rainwise IP-100,2013-06-16 10:13:00,
2013-06-16 04:18:00,46.0,39.0,27.02,ENE,67,0.0,0.0,77,0.00,,,0.00,Rainwise IP-100,2013-06-16 10:18:00,
2013-06-16 04:23:00,46.0,40.0,27.02,ENE,67,0.0,0.0,80,0.00,,,0.00,Rainwise IP-100,2013-06-16 10:23:00,
2013-06-16 04:28:00,46.0,40.0,27.03,ENE,67,0.0,0.0,81,0.00,,,0.00,Rainwise IP-100,2013-06-16 10:28:00,
2013-06-16 04:33:00,45.0,39.0,27.03,ENE,67,0.0,0.0,81,0.00,,,0.00,Rainwise IP-100,2013-06-16 10:33:00,
2013-06-16 04:38:00,46.0,40.0,27.03,ENE,67,0.0,0.0,81,0.00,,,0.00,Rainwise IP-100,2013-06-16 10:38:00,
2013-06-16 04:43:00,45.0,39.0,27.03,ENE,67,0.0,0.0,81,0.00,,,0.00,Rainwise IP-100,2013-06-16 10:43:00,
2013-06-16 04:48:00,45.0,40.0,27.03,ENE,67,0.0,0.0,83,0.00,,,0.00,Rainwise IP-100,2013-06-16 10:48:00,
2013-06-16 04:53:00,45.0,40.0,27.03,ENE,67,0.0,0.0,83,0.00,,,0.00,Rainwise IP-100,2013-06-16 10:53:00,
2013-06-16 04:58:00,45.0,40.0,27.03,ENE,67,0.0,0.0,83,0.00,,,0.00,Rainwise IP-100,2013-06-16 10:58:00,
2013-06-16 05:03:00,45.0,40.0,27.03,ENE,67,0.0,0.0,82,0.00,,,0.00,Rainwise IP-100,2013-06-16 11:03:00,
2013-06-16 05:08:00,45.0,40.0,27.04,ENE,67,0.0,0.0,82,0.00,,,0.00,Rainwise IP-100,2013-06-16 11:08:00,
2013-06-16 05:13:00,45.0,40.0,27.04,ENE,67,0.0,0.0,83,0.00,,,0.00,Rainwise IP-100,2013-06-16 11:13:00,
2013-06-16 05:18:00,44.0,39.0,27.03,ENE,67,0.0,0.0,84,0.00,,,0.00,Rainwise IP-100,2013-06-16 11:18:00,
2013-06-16 05:23:00,44.0,39.0,27.03,ENE,67,0.0,1.0,84,0.00,,,0.00,Rainwise IP-100,2013-06-16 11:23:00,
2013-06-16 05:28:00,45.0,40.0,27.03,WNW,292,2.0,4.0,83,0.00,,,0.00,Rainwise IP-100,2013-06-16 11:28:00,
2013-06-16 05:33:00,45.0,40.0,27.03,NNE,22,0.0,3.0,82,0.00,,,0.00,Rainwise IP-100,2013-06-16 11:33:00,
2013-06-16 05:38:00,45.0,39.0,27.04,NNE,22,0.0,0.0,81,0.00,,,0.00,Rainwise IP-100,2013-06-16 11:38:00,
2013-06-16 05:43:00,45.0,40.0,27.04,ENE,67,3.0,3.0,82,0.00,,,0.00,Rainwise IP-100,2013-06-16 11:43:00,
2013-06-16 05:48:00,45.0,39.0,27.03,East,90,0.0,3.0,81,0.00,,,0.00,Rainwise IP-100,2013-06-16 11:48:00,
2013-06-16 05:53:00,45.0,40.0,27.03,ENE,67,1.0,2.0,82,0.00,,,0.00,Rainwise IP-100,2013-06-16 11:53:00,
2013-06-16 05:58:00,45.0,39.0,27.03,ENE,67,0.0,3.0,81,0.00,,,0.00,Rainwise IP-100,2013-06-16 11:58:00,
2013-06-16 06:03:00,45.0,39.0,27.03,ENE,67,0.0,1.0,81,0.00,,,0.00,Rainwise IP-100,2013-06-16 12:03:00,
2013-06-16 06:08:00,44.0,39.0,27.04,ENE,67,0.0,0.0,84,0.00,,,0.00,Rainwise IP-100,2013-06-16 12:08:00,
2013-06-16 06:13:00,44.0,39.0,27.04,ENE,67,0.0,0.0,84,0.00,,,0.00,Rainwise IP-100,2013-06-16 12:13:00,
2013-06-16 06:18:00,44.0,40.0,27.05,ENE,67,0.0,0.0,85,0.00,,,0.00,Rainwise IP-100,2013-06-16 12:18:00,
2013-06-16 06:23:00,44.0,40.0,27.05,ENE,67,0.0,0.0,87,0.00,,,0.00,Rainwise IP-100,2013-06-16 12:23:00,
2013-06-16 06:28:00,45.0,41.0,27.05,SE,135,3.0,3.0,85,0.00,,,0.00,Rainwise IP-100,2013-06-16 12:28:00,
2013-06-16 06:33:00,46.0,40.0,27.05,SE,135,2.0,3.0,82,0.00,,,0.00,Rainwise IP-100,2013-06-16 12:33:00,
2013-06-16 06:38:00,47.0,40.0,27.04,South,180,1.0,4.0,78,0.00,,,0.00,Rainwise IP-100,2013-06-16 12:38:00,
2013-06-16 06:43:00,48.0,41.0,27.04,SSW,202,2.0,3.0,77,0.00,,,0.00,Rainwise IP-100,2013-06-16 12:43:00,
2013-06-16 06:48:00,48.0,40.0,27.04,East,90,0.0,4.0,74,0.00,,,0.00,Rainwise IP-100,2013-06-16 12:48:00,
2013-06-16 06:53:00,49.0,41.0,27.04,SSE,157,0.0,2.0,73,0.00,,,0.00,Rainwise IP-100,2013-06-16 12:53:00,
2013-06-16 06:58:00,50.0,41.0,27.03,SSE,157,0.0,0.0,72,0.00,,,0.00,Rainwise IP-100,2013-06-16 12:58:00,
2013-06-16 07:03:00,51.0,40.0,27.03,West,270,1.0,3.0,67,0.00,,,0.00,Rainwise IP-100,2013-06-16 13:03:00,
2013-06-16 07:08:00,51.0,40.0,27.02,West,270,2.0,3.0,67,0.00,,,0.00,Rainwise IP-100,2013-06-16 13:08:00,
2013-06-16 07:13:00,52.0,41.0,27.02,West,270,3.0,5.0,66,0.00,,,0.00,Rainwise IP-100,2013-06-16 13:13:00,
2013-06-16 07:18:00,52.0,41.0,27.02,WNW,292,4.0,5.0,66,0.00,,,0.00,Rainwise IP-100,2013-06-16 13:18:00,
2013-06-16 07:23:00,52.0,41.0,27.02,NW,315,0.0,5.0,66,0.00,,,0.00,Rainwise IP-100,2013-06-16 13:23:00,
2013-06-16 07:28:00,52.0,40.0,27.02,SW,225,2.0,5.0,65,0.00,,,0.00,Rainwise IP-100,2013-06-16 13:28:00,
2013-06-16 07:33:00,53.0,40.0,27.02,SW,225,0.0,4.0,63,0.00,,,0.00,Rainwise IP-100,2013-06-16 13:33:00,
2013-06-16 07:38:00,53.0,40.0,27.02,West,270,0.0,4.0,62,0.00,,,0.00,Rainwise IP-100,2013-06-16 13:38:00,
2013-06-16 07:43:00,54.0,40.0,27.02,SW,225,2.0,4.0,60,0.00,,,0.00,Rainwise IP-100,2013-06-16 13:43:00,
2013-06-16 07:48:00,55.0,42.0,27.01,West,270,1.0,3.0,61,0.00,,,0.00,Rainwise IP-100,2013-06-16 13:48:00,
2013-06-16 07:53:00,56.0,41.0,27.01,NNE,22,0.0,2.0,58,0.00,,,0.00,Rainwise IP-100,2013-06-16 13:53:00,
2013-06-16 07:58:00,56.0,39.0,27.00,SE,135,2.0,5.0,54,0.00,,,0.00,Rainwise IP-100,2013-06-16 13:58:00,
2013-06-16 08:03:00,57.0,40.0,27.00,SE,135,0.0,3.0,53,0.00,,,0.00,Rainwise IP-100,2013-06-16 14:03:00,
2013-06-16 08:08:00,58.0,41.0,26.99,ENE,67,0.0,3.0,53,0.00,,,0.00,Rainwise IP-100,2013-06-16 14:08:00,
2013-06-16 08:13:00,59.0,41.0,26.99,East,90,2.0,4.0,52,0.00,,,0.00,Rainwise IP-100,2013-06-16 14:13:00,
2013-06-16 08:18:00,59.0,41.0,26.99,SSW,202,0.0,3.0,51,0.00,,,0.00,Rainwise IP-100,2013-06-16 14:18:00,
2013-06-16 08:23:00,59.0,40.0,26.99,East,90,1.0,3.0,50,0.00,,,0.00,Rainwise IP-100,2013-06-16 14:23:00,
2013-06-16 08:28:00,60.0,41.0,26.99,ENE,67,0.0,3.0,50,0.00,,,0.00,Rainwise IP-100,2013-06-16 14:28:00,
2013-06-16 08:33:00,60.0,41.0,26.99,SSE,157,5.0,6.0,50,0.00,,,0.00,Rainwise IP-100,2013-06-16 14:33:00,
2013-06-16 08:38:00,60.0,40.0,26.99,SSW,202,1.0,5.0,49,0.00,,,0.00,Rainwise IP-100,2013-06-16 14:38:00,
2013-06-16 08:43:00,60.0,40.0,26.99,West,270,1.0,3.0,49,0.00,,,0.00,Rainwise IP-100,2013-06-16 14:43:00,
2013-06-16 08:48:00,60.0,40.0,26.98,NNE,22,1.0,4.0,49,0.00,,,0.00,Rainwise IP-100,2013-06-16 14:48:00,
2013-06-16 08:53:00,61.0,41.0,26.98,WNW,292,0.0,5.0,49,0.00,,,0.00,Rainwise IP-100,2013-06-16 14:53:00,
2013-06-16 08:58:00,61.0,41.0,26.99,SE,135,2.0,6.0,48,0.00,,,0.00,Rainwise IP-100,2013-06-16 14:58:00,
2013-06-16 09:03:00,61.0,41.0,26.99,ENE,67,2.0,5.0,48,0.00,,,0.00,Rainwise IP-100,2013-06-16 15:03:00,
2013-06-16 09:08:00,62.0,41.0,26.98,South,180,1.0,4.0,47,0.00,,,0.00,Rainwise IP-100,2013-06-16 15:08:00,
2013-06-16 09:13:00,62.0,41.0,26.98,South,180,2.0,5.0,46,0.00,,,0.00,Rainwise IP-100,2013-06-16 15:13:00,
2013-06-16 09:18:00,63.0,41.0,26.97,ENE,67,2.0,4.0,45,0.00,,,0.00,Rainwise IP-100,2013-06-16 15:18:00,
2013-06-16 09:23:00,63.0,42.0,26.97,SE,135,0.0,4.0,46,0.00,,,0.00,Rainwise IP-100,2013-06-16 15:23:00,
2013-06-16 09:28:00,63.0,41.0,26.97,West,270,2.0,6.0,45,0.00,,,0.00,Rainwise IP-100,2013-06-16 15:28:00,
2013-06-16 09:33:00,63.0,42.0,26.97,NW,315,3.0,6.0,46,0.00,,,0.00,Rainwise IP-100,2013-06-16 15:33:00,
2013-06-16 09:38:00,64.0,41.0,26.97,NNW,337,4.0,6.0,44,0.00,,,0.00,Rainwise IP-100,2013-06-16 15:38:00,
2013-06-16 09:43:00,65.0,42.0,26.97,NE,45,5.0,6.0,44,0.00,,,0.00,Rainwise IP-100,2013-06-16 15:43:00,
2013-06-16 09:48:00,65.0,42.0,26.96,ENE,67,0.0,6.0,43,0.00,,,0.00,Rainwise IP-100,2013-06-16 15:48:00,
2013-06-16 09:53:00,65.0,42.0,26.96,ESE,112,3.0,6.0,44,0.00,,,0.00,Rainwise IP-100,2013-06-16 15:53:00,
2013-06-16 09:58:00,65.0,41.0,26.96,NE,45,1.0,4.0,42,0.00,,,0.00,Rainwise IP-100,2013-06-16 15:58:00,
2013-06-16 10:03:00,66.0,42.0,26.96,NW,315,3.0,4.0,42,0.00,,,0.00,Rainwise IP-100,2013-06-16 16:03:00,
2013-06-16 10:08:00,67.0,42.0,26.95,NNW,337,3.0,5.0,41,0.00,,,0.00,Rainwise IP-100,2013-06-16 16:08:00,
2013-06-16 10:13:00,68.0,43.0,26.95,SW,225,1.0,4.0,40,0.00,,,0.00,Rainwise IP-100,2013-06-16 16:13:00,
2013-06-16 10:18:00,67.0,41.0,26.94,WNW,292,6.0,6.0,39,0.00,,,0.00,Rainwise IP-100,2013-06-16 16:18:00,
2013-06-16 10:23:00,65.0,39.0,26.94,West,270,2.0,7.0,39,0.00,,,0.00,Rainwise IP-100,2013-06-16 16:23:00,
2013-06-16 10:28:00,66.0,41.0,26.95,NE,45,1.0,6.0,40,0.00,,,0.00,Rainwise IP-100,2013-06-16 16:28:00,
2013-06-16 10:33:00,66.0,41.0,26.95,WNW,292,2.0,6.0,40,0.00,,,0.00,Rainwise IP-100,2013-06-16 16:33:00,
2013-06-16 10:38:00,67.0,40.0,26.94,NW,315,2.0,6.0,37,0.00,,,0.00,Rainwise IP-100,2013-06-16 16:38:00,
2013-06-16 10:43:00,68.0,39.0,26.94,ENE,67,2.0,6.0,35,0.00,,,0.00,Rainwise IP-100,2013-06-16 16:43:00,
2013-06-16 10:48:00,68.0,40.0,26.94,SSE,157,2.0,5.0,36,0.00,,,0.00,Rainwise IP-100,2013-06-16 16:48:00,
2013-06-16 10:53:00,68.0,41.0,26.94,NNW,337,6.0,6.0,37,0.00,,,0.00,Rainwise IP-100,2013-06-16 16:53:00,
2013-06-16 10:58:00,69.0,39.0,26.93,South,180,3.0,6.0,34,0.00,,,0.00,Rainwise IP-100,2013-06-16 16:58:00,
2013-06-16 11:03:00,68.0,39.0,26.93,WSW,247,3.0,7.0,35,0.00,,,0.00,Rainwise IP-100,2013-06-16 17:03:00,
2013-06-16 11:08:00,69.0,40.0,26.93,NE,45,6.0,7.0,35,0.00,,,0.00,Rainwise IP-100,2013-06-16 17:08:00,
2013-06-16 11:13:00,69.0,38.0,26.93,NNW,337,4.0,7.0,33,0.00,,,0.00,Rainwise IP-100,2013-06-16 17:13:00,
2013-06-16 11:18:00,71.0,40.0,26.92,North,360,6.0,6.0,33,0.00,,,0.00,Rainwise IP-100,2013-06-16 17:18:00,
2013-06-16 11:23:00,70.0,39.0,26.92,West,270,5.0,7.0,32,0.00,,,0.00,Rainwise IP-100,2013-06-16 17:23:00,
2013-06-16 11:28:00,70.0,39.0,26.92,NW,315,2.0,7.0,32,0.00,,,0.00,Rainwise IP-100,2013-06-16 17:28:00,
2013-06-16 11:33:00,71.0,39.0,26.92,West,270,0.0,8.0,32,0.00,,,0.00,Rainwise IP-100,2013-06-16 17:33:00,
2013-06-16 11:38:00,72.0,39.0,26.91,North,360,2.0,6.0,30,0.00,,,0.00,Rainwise IP-100,2013-06-16 17:38:00,
2013-06-16 11:43:00,71.0,40.0,26.91,NW,315,1.0,8.0,33,0.00,,,0.00,Rainwise IP-100,2013-06-16 17:43:00,
2013-06-16 11:48:00,70.0,39.0,26.91,WNW,292,2.0,7.0,32,0.00,,,0.00,Rainwise IP-100,2013-06-16 17:48:00,
2013-06-16 11:53:00,71.0,40.0,26.91,SSE,157,4.0,8.0,33,0.00,,,0.00,Rainwise IP-100,2013-06-16 17:53:00,
2013-06-16 11:58:00,71.0,39.0,26.91,SW,225,4.0,7.0,32,0.00,,,0.00,Rainwise IP-100,2013-06-16 17:58:00,
2013-06-16 12:03:00,72.0,40.0,26.91,WSW,247,0.0,7.0,32,0.00,,,0.00,Rainwise IP-100,2013-06-16 18:03:00,
2013-06-16 12:08:00,73.0,42.0,26.90,NNW,337,6.0,7.0,33,0.00,,,0.00,Rainwise IP-100,2013-06-16 18:08:00,
2013-06-16 12:13:00,73.0,40.0,26.90,ENE,67,0.0,7.0,30,0.00,,,0.00,Rainwise IP-100,2013-06-16 18:13:00,
2013-06-16 12:15:00,73.0,40.0,26.90,NNE,22,1.0,6.0,31,0.00,,,0.00,Rainwise IP-100,2013-06-16 18:15:00,
2013-06-16 12:20:00,73.0,41.0,26.90,NNW,337,5.0,8.0,32,0.00,,,0.00,Rainwise IP-100,2013-06-16 18:20:00,
2013-06-16 12:25:00,73.0,41.0,26.90,West,270,6.0,7.0,32,0.00,,,0.00,Rainwise IP-100,2013-06-16 18:25:00,
2013-06-16 12:30:00,72.0,40.0,26.90,SSW,202,1.0,9.0,32,0.00,,,0.00,Rainwise IP-100,2013-06-16 18:30:00,
2013-06-16 12:35:00,73.0,40.0,26.90,WSW,247,0.0,6.0,31,0.00,,,0.00,Rainwise IP-100,2013-06-16 18:35:00,
2013-06-16 12:40:00,74.0,41.0,26.89,West,270,4.0,9.0,30,0.00,,,0.00,Rainwise IP-100,2013-06-16 18:40:00,
2013-06-16 12:45:00,73.0,40.0,26.89,WNW,292,7.0,10.0,30,0.00,,,0.00,Rainwise IP-100,2013-06-16 18:45:00,
2013-06-16 12:50:00,74.0,42.0,26.89,North,360,5.0,9.0,32,0.00,,,0.00,Rainwise IP-100,2013-06-16 18:50:00,
2013-06-16 12:55:00,75.0,41.0,26.89,West,270,0.0,7.0,29,0.00,,,0.00,Rainwise IP-100,2013-06-16 18:55:00,
2013-06-16 13:00:00,76.0,41.0,26.88,WNW,292,7.0,7.0,29,0.00,,,0.00,Rainwise IP-100,2013-06-16 19:00:00,
2013-06-16 13:05:00,76.0,38.0,26.88,NW,315,5.0,8.0,25,0.00,,,0.00,Rainwise IP-100,2013-06-16 19:05:00,
2013-06-16 13:10:00,77.0,39.0,26.87,NW,315,3.0,6.0,25,0.00,,,0.00,Rainwise IP-100,2013-06-16 19:10:00,
2013-06-16 13:15:00,77.0,39.0,26.87,South,180,1.0,8.0,25,0.00,,,0.00,Rainwise IP-100,2013-06-16 19:15:00,
2013-06-16 13:20:00,78.0,38.0,26.87,SE,135,2.0,5.0,24,0.00,,,0.00,Rainwise IP-100,2013-06-16 19:20:00,
2013-06-16 13:25:00,77.0,31.0,26.87,North,360,3.0,11.0,18,0.00,,,0.00,Rainwise IP-100,2013-06-16 19:25:00,
2013-06-16 13:30:00,77.0,33.0,26.86,NE,45,0.0,7.0,20,0.00,,,0.00,Rainwise IP-100,2013-06-16 19:30:00,
2013-06-16 13:35:00,78.0,37.0,26.86,WNW,292,7.0,7.0,23,0.00,,,0.00,Rainwise IP-100,2013-06-16 19:35:00,
2013-06-16 13:40:00,77.0,37.0,26.86,WNW,292,9.0,9.0,23,0.00,,,0.00,Rainwise IP-100,2013-06-16 19:40:00,
2013-06-16 13:45:00,78.0,38.0,26.86,SSE,157,9.0,13.0,24,0.00,,,0.00,Rainwise IP-100,2013-06-16 19:45:00,
2013-06-16 13:50:00,77.0,38.0,26.85,SSE,157,7.0,9.0,24,0.00,,,0.00,Rainwise IP-100,2013-06-16 19:50:00,
2013-06-16 13:55:00,76.0,35.0,26.85,South,180,2.0,9.0,22,0.00,,,0.00,Rainwise IP-100,2013-06-16 19:55:00,
2013-06-16 14:00:00,78.0,38.0,26.86,SW,225,1.0,9.0,24,0.00,,,0.00,Rainwise IP-100,2013-06-16 20:00:00,
2013-06-16 14:05:00,78.0,37.0,26.86,South,180,4.0,9.0,23,0.00,,,0.00,Rainwise IP-100,2013-06-16 20:05:00,
2013-06-16 14:10:00,78.0,36.0,26.85,SE,135,0.0,7.0,22,0.00,,,0.00,Rainwise IP-100,2013-06-16 20:10:00,
2013-06-16 14:15:00,79.0,32.0,26.85,SSW,202,4.0,8.0,18,0.00,,,0.00,Rainwise IP-100,2013-06-16 20:15:00,
2013-06-16 14:20:00,80.0,33.0,26.84,SSW,202,3.0,6.0,18,0.00,,,0.00,Rainwise IP-100,2013-06-16 20:20:00,
2013-06-16 14:25:00,80.0,33.0,26.84,SSE,157,3.0,7.0,18,0.00,,,0.00,Rainwise IP-100,2013-06-16 20:25:00,
2013-06-16 14:30:00,80.0,33.0,26.83,WSW,247,0.0,9.0,18,0.00,,,0.00,Rainwise IP-100,2013-06-16 20:30:00,
2013-06-16 14:35:00,80.0,32.0,26.83,NW,315,7.0,7.0,17,0.00,,,0.00,Rainwise IP-100,2013-06-16 20:35:00,
2013-06-16 14:40:00,81.0,33.0,26.83,WNW,292,0.0,9.0,18,0.00,,,0.00,Rainwise IP-100,2013-06-16 20:40:00,
2013-06-16 14:45:00,82.0,28.0,26.83,SW,225,0.0,6.0,14,0.00,,,0.00,Rainwise IP-100,2013-06-16 20:45:00,
2013-06-16 14:50:00,82.0,26.0,26.82,NNW,337,5.0,7.0,13,0.00,,,0.00,Rainwise IP-100,2013-06-16 20:50:00,
2013-06-16 14:55:00,82.0,26.0,26.82,NE,45,6.0,7.0,13,0.00,,,0.00,Rainwise IP-100,2013-06-16 20:55:00,
2013-06-16 15:00:00,82.0,28.0,26.82,West,270,3.0,6.0,14,0.00,,,0.00,Rainwise IP-100,2013-06-16 21:00:00,
2013-06-16 15:05:00,81.0,29.0,26.82,SSW,202,5.0,10.0,15,0.00,,,0.00,Rainwise IP-100,2013-06-16 21:05:00,
2013-06-16 15:10:00,82.0,32.0,26.82,WSW,247,6.0,10.0,16,0.00,,,0.00,Rainwise IP-100,2013-06-16 21:10:00,
2013-06-16 15:15:00,82.0,31.0,26.82,SE,135,6.0,7.0,15,0.00,,,0.00,Rainwise IP-100,2013-06-16 21:15:00,
2013-06-16 15:20:00,82.0,31.0,26.81,West,270,0.0,8.0,15,0.00,,,0.00,Rainwise IP-100,2013-06-16 21:20:00,
2013-06-16 15:25:00,82.0,32.0,26.81,NW,315,5.0,7.0,16,0.00,,,0.00,Rainwise IP-100,2013-06-16 21:25:00,
2013-06-16 15:30:00,82.0,35.0,26.81,NE,45,7.0,11.0,18,0.00,,,0.00,Rainwise IP-100,2013-06-16 21:30:00,
2013-06-16 15:35:00,82.0,33.0,26.81,NNW,337,7.0,11.0,17,0.00,,,0.00,Rainwise IP-100,2013-06-16 21:35:00,
2013-06-16 15:40:00,81.0,33.0,26.81,North,360,7.0,10.0,18,0.00,,,0.00,Rainwise IP-100,2013-06-16 21:40:00,
2013-06-16 15:45:00,83.0,33.0,26.81,SSW,202,2.0,7.0,17,0.00,,,0.00,Rainwise IP-100,2013-06-16 21:45:00,
2013-06-16 15:50:00,83.0,33.0,26.80,North,360,7.0,11.0,17,0.00,,,0.00,Rainwise IP-100,2013-06-16 21:50:00,
2013-06-16 15:55:00,83.0,32.0,26.80,West,270,9.0,12.0,16,0.00,,,0.00,Rainwise IP-100,2013-06-16 21:55:00,
2013-06-16 16:00:00,83.0,33.0,26.81,NW,315,6.0,12.0,17,0.00,,,0.00,Rainwise IP-100,2013-06-16 22:00:00,
2013-06-16 16:05:00,82.0,33.0,26.81,West,270,9.0,10.0,17,0.00,,,0.00,Rainwise IP-100,2013-06-16 22:05:00,
2013-06-16 16:10:00,82.0,35.0,26.80,NW,315,7.0,10.0,18,0.00,,,0.00,Rainwise IP-100,2013-06-16 22:10:00,
2013-06-16 16:15:00,81.0,33.0,26.80,NW,315,6.0,15.0,18,0.00,,,0.00,Rainwise IP-100,2013-06-16 22:15:00,
2013-06-16 16:20:00,80.0,33.0,26.80,NNW,337,6.0,12.0,18,0.00,,,0.00,Rainwise IP-100,2013-06-16 22:20:00,
2013-06-16 16:25:00,81.0,35.0,26.80,NNW,337,6.0,9.0,19,0.00,,,0.00,Rainwise IP-100,2013-06-16 22:25:00,
2013-06-16 16:30:00,82.0,35.0,26.80,NNE,22,2.0,9.0,18,0.00,,,0.00,Rainwise IP-100,2013-06-16 22:30:00,
2013-06-16 16:35:00,82.0,35.0,26.80,WNW,292,6.0,10.0,18,0.00,,,0.00,Rainwise IP-100,2013-06-16 22:35:00,
2013-06-16 16:40:00,82.0,36.0,26.80,West,270,4.0,10.0,19,0.00,,,0.00,Rainwise IP-100,2013-06-16 22:40:00,
2013-06-16 16:45:00,83.0,36.0,26.80,NNE,22,1.0,9.0,18,0.00,,,0.00,Rainwise IP-100,2013-06-16 22:45:00,
2013-06-16 16:50:00,83.0,36.0,26.79,North,360,2.0,9.0,18,0.00,,,0.00,Rainwise IP-100,2013-06-16 22:50:00,
2013-06-16 16:55:00,82.0,35.0,26.79,WNW,292,7.0,10.0,18,0.00,,,0.00,Rainwise IP-100,2013-06-16 22:55:00,
2013-06-16 17:00:00,83.0,36.0,26.79,NNE,22,6.0,9.0,18,0.00,,,0.00,Rainwise IP-100,2013-06-16 23:00:00,
2013-06-16 17:05:00,84.0,36.0,26.79,NW,315,6.0,10.0,18,0.00,,,0.00,Rainwise IP-100,2013-06-16 23:05:00,
2013-06-16 17:10:00,84.0,36.0,26.78,NW,315,4.0,12.0,18,0.00,,,0.00,Rainwise IP-100,2013-06-16 23:10:00,
2013-06-16 17:15:00,84.0,35.0,26.78,NNW,337,4.0,13.0,17,0.00,,,0.00,Rainwise IP-100,2013-06-16 23:15:00,
2013-06-16 17:20:00,84.0,36.0,26.78,WNW,292,2.0,9.0,18,0.00,,,0.00,Rainwise IP-100,2013-06-16 23:20:00,
2013-06-16 17:25:00,84.0,36.0,26.78,West,270,7.0,10.0,18,0.00,,,0.00,Rainwise IP-100,2013-06-16 23:25:00,
2013-06-16 17:30:00,83.0,36.0,26.79,West,270,4.0,11.0,18,0.00,,,0.00,Rainwise IP-100,2013-06-16 23:30:00,
2013-06-16 17:35:00,83.0,36.0,26.79,NNW,337,2.0,9.0,18,0.00,,,0.00,Rainwise IP-100,2013-06-16 23:35:00,
2013-06-16 17:40:00,83.0,36.0,26.79,WNW,292,6.0,11.0,18,0.00,,,0.00,Rainwise IP-100,2013-06-16 23:40:00,
2013-06-16 17:45:00,83.0,36.0,26.79,NW,315,3.0,12.0,18,0.00,,,0.00,Rainwise IP-100,2013-06-16 23:45:00,
2013-06-16 17:50:00,83.0,36.0,26.77,NW,315,7.0,11.0,18,0.00,,,0.00,Rainwise IP-100,2013-06-16 23:50:00,
2013-06-16 17:55:00,83.0,36.0,26.77,WNW,292,6.0,9.0,18,0.00,,,0.00,Rainwise IP-100,2013-06-16 23:55:00,
2013-06-16 18:00:00,83.0,37.0,26.78,NNW,337,5.0,12.0,19,0.00,,,0.00,Rainwise IP-100,2013-06-17 00:00:00,
2013-06-16 18:05:00,84.0,36.0,26.78,NW,315,9.0,9.0,18,0.00,,,0.00,Rainwise IP-100,2013-06-17 00:05:00,
2013-06-16 18:10:00,83.0,36.0,26.77,NW,315,9.0,10.0,18,0.00,,,0.00,Rainwise IP-100,2013-06-17 00:10:00,
2013-06-16 18:15:00,83.0,37.0,26.77,NW,315,3.0,13.0,19,0.00,,,0.00,Rainwise IP-100,2013-06-17 00:15:00,
2013-06-16 18:20:00,83.0,36.0,26.78,NNW,337,8.0,11.0,18,0.00,,,0.00,Rainwise IP-100,2013-06-17 00:20:00,
2013-06-16 18:25:00,83.0,36.0,26.78,WNW,292,9.0,11.0,18,0.00,,,0.00,Rainwise IP-100,2013-06-17 00:25:00,
2013-06-16 18:30:00,83.0,36.0,26.78,WNW,292,5.0,12.0,18,0.00,,,0.00,Rainwise IP-100,2013-06-17 00:30:00,
2013-06-16 18:35:00,83.0,36.0,26.78,NNE,22,4.0,9.0,18,0.00,,,0.00,Rainwise IP-100,2013-06-17 00:35:00,
2013-06-16 18:40:00,82.0,35.0,26.79,NNW,337,7.0,12.0,18,0.00,,,0.00,Rainwise IP-100,2013-06-17 00:40:00,
2013-06-16 18:45:00,83.0,36.0,26.79,NNW,337,6.0,8.0,18,0.00,,,0.00,Rainwise IP-100,2013-06-17 00:45:00,
2013-06-16 18:50:00,84.0,36.0,26.78,NW,315,5.0,9.0,18,0.00,,,0.00,Rainwise IP-100,2013-06-17 00:50:00,
2013-06-16 18:55:00,84.0,36.0,26.78,NW,315,3.0,9.0,18,0.00,,,0.00,Rainwise IP-100,2013-06-17 00:55:00,
2013-06-16 19:00:00,82.0,35.0,26.77,West,270,7.0,9.0,18,0.00,,,0.00,Rainwise IP-100,2013-06-17 01:00:00,
2013-06-16 19:05:00,82.0,37.0,26.77,WNW,292,4.0,7.0,20,0.00,,,0.00,Rainwise IP-100,2013-06-17 01:05:00,
2013-06-16 19:10:00,82.0,37.0,26.78,WNW,292,4.0,9.0,20,0.00,,,0.00,Rainwise IP-100,2013-06-17 01:10:00,
2013-06-16 19:15:00,82.0,37.0,26.78,West,270,4.0,9.0,20,0.00,,,0.00,Rainwise IP-100,2013-06-17 01:15:00,
2013-06-16 19:20:00,81.0,36.0,26.79,NNW,337,6.0,10.0,20,0.00,,,0.00,Rainwise IP-100,2013-06-17 01:20:00,
2013-06-16 19:25:00,81.0,36.0,26.79,NW,315,7.0,11.0,20,0.00,,,0.00,Rainwise IP-100,2013-06-17 01:25:00,
2013-06-16 19:30:00,82.0,37.0,26.78,NW,315,5.0,10.0,20,0.00,,,0.00,Rainwise IP-100,2013-06-17 01:30:00,
2013-06-16 19:35:00,82.0,37.0,26.78,NW,315,9.0,9.0,20,0.00,,,0.00,Rainwise IP-100,2013-06-17 01:35:00,
2013-06-16 19:40:00,81.0,36.0,26.78,NNW,337,3.0,9.0,20,0.00,,,0.00,Rainwise IP-100,2013-06-17 01:40:00,
2013-06-16 19:45:00,81.0,36.0,26.78,NW,315,9.0,12.0,20,0.00,,,0.00,Rainwise IP-100,2013-06-17 01:45:00,
2013-06-16 19:50:00,81.0,36.0,26.79,NW,315,4.0,10.0,20,0.00,,,0.00,Rainwise IP-100,2013-06-17 01:50:00,
2013-06-16 19:55:00,80.0,36.0,26.79,NW,315,8.0,10.0,20,0.00,,,0.00,Rainwise IP-100,2013-06-17 01:55:00,
2013-06-16 20:00:00,80.0,36.0,26.79,WNW,292,7.0,10.0,20,0.00,,,0.00,Rainwise IP-100,2013-06-17 02:00:00,
2013-06-16 20:05:00,80.0,36.0,26.79,NW,315,2.0,10.0,20,0.00,,,0.00,Rainwise IP-100,2013-06-17 02:05:00,
2013-06-16 20:10:00,80.0,36.0,26.79,NNW,337,6.0,8.0,20,0.00,,,0.00,Rainwise IP-100,2013-06-17 02:10:00,
2013-06-16 20:15:00,80.0,36.0,26.79,WNW,292,5.0,9.0,20,0.00,,,0.00,Rainwise IP-100,2013-06-17 02:15:00,
2013-06-16 20:20:00,79.0,35.0,26.79,WNW,292,8.0,8.0,20,0.00,,,0.00,Rainwise IP-100,2013-06-17 02:20:00,
2013-06-16 20:25:00,79.0,37.0,26.79,WNW,292,3.0,10.0,22,0.00,,,0.00,Rainwise IP-100,2013-06-17 02:25:00,
2013-06-16 20:30:00,79.0,38.0,26.80,West,270,6.0,7.0,23,0.00,,,0.00,Rainwise IP-100,2013-06-17 02:30:00,
2013-06-16 20:35:00,78.0,38.0,26.80,West,270,4.0,8.0,24,0.00,,,0.00,Rainwise IP-100,2013-06-17 02:35:00,
2013-06-16 20:40:00,77.0,38.0,26.80,West,270,4.0,8.0,24,0.00,,,0.00,Rainwise IP-100,2013-06-17 02:40:00,
2013-06-16 20:45:00,77.0,38.0,26.80,WSW,247,5.0,7.0,24,0.00,,,0.00,Rainwise IP-100,2013-06-17 02:45:00,
2013-06-16 20:50:00,76.0,38.0,26.81,West,270,2.0,7.0,25,0.00,,,0.00,Rainwise IP-100,2013-06-17 02:50:00,
2013-06-16 20:55:00,75.0,38.0,26.81,West,270,2.0,6.0,26,0.00,,,0.00,Rainwise IP-100,2013-06-17 02:55:00,
2013-06-16 21:00:00,74.0,37.0,26.82,West,270,0.0,6.0,26,0.00,,,0.00,Rainwise IP-100,2013-06-17 03:00:00,
2013-06-16 21:05:00,74.0,39.0,26.82,South,180,1.0,5.0,28,0.00,,,0.00,Rainwise IP-100,2013-06-17 03:05:00,
2013-06-16 21:10:00,73.0,38.0,26.83,SSW,202,1.0,2.0,28,0.00,,,0.00,Rainwise IP-100,2013-06-17 03:10:00,
2013-06-16 21:15:00,72.0,38.0,26.83,SSW,202,1.0,3.0,29,0.00,,,0.00,Rainwise IP-100,2013-06-17 03:15:00,
2013-06-16 21:20:00,72.0,39.0,26.84,WSW,247,3.0,4.0,30,0.00,,,0.00,Rainwise IP-100,2013-06-17 03:20:00,
2013-06-16 21:25:00,71.0,38.0,26.84,WSW,247,2.0,3.0,30,0.00,,,0.00,Rainwise IP-100,2013-06-17 03:25:00,
2013-06-16 21:30:00,71.0,38.0,26.85,WSW,247,0.0,4.0,30,0.00,,,0.00,Rainwise IP-100,2013-06-17 03:30:00,
2013-06-16 21:35:00,70.0,38.0,26.85,ESE,112,3.0,4.0,31,0.00,,,0.00,Rainwise IP-100,2013-06-17 03:35:00,
2013-06-16 21:40:00,70.0,39.0,26.85,SSE,157,2.0,5.0,32,0.00,,,0.00,Rainwise IP-100,2013-06-17 03:40:00,
2013-06-16 21:45:00,70.0,39.0,26.85,SSE,157,0.0,6.0,32,0.00,,,0.00,Rainwise IP-100,2013-06-17 03:45:00,
2013-06-16 21:50:00,69.0,38.0,26.86,South,180,0.0,4.0,32,0.00,,,0.00,Rainwise IP-100,2013-06-17 03:50:00,
2013-06-16 21:55:00,69.0,38.0,26.86,South,180,3.0,3.0,33,0.00,,,0.00,Rainwise IP-100,2013-06-17 03:55:00,
2013-06-16 22:00:00,68.0,38.0,26.86,South,180,0.0,3.0,34,0.00,,,0.00,Rainwise IP-100,2013-06-17 04:00:00,
2013-06-16 22:01:00,68.0,38.0,26.86,South,180,0.0,3.0,34,0.00,,,0.00,Rainwise IP-100,2013-06-17 04:01:00,
2013-06-16 22:06:00,68.0,38.0,26.86,SSW,202,0.0,5.0,33,0.00,,,0.00,Rainwise IP-100,2013-06-17 04:06:00,
2013-06-16 22:11:00,68.0,38.0,26.87,SSW,202,0.0,2.0,34,0.00,,,0.00,Rainwise IP-100,2013-06-17 04:11:00,
2013-06-16 22:16:00,68.0,39.0,26.87,South,180,3.0,5.0,35,0.00,,,0.00,Rainwise IP-100,2013-06-17 04:16:00,
2013-06-16 22:21:00,68.0,40.0,26.87,SSE,157,3.0,6.0,36,0.00,,,0.00,Rainwise IP-100,2013-06-17 04:21:00,
2013-06-16 22:26:00,67.0,38.0,26.87,East,90,0.0,3.0,35,0.00,,,0.00,Rainwise IP-100,2013-06-17 04:26:00,
2013-06-16 22:31:00,67.0,40.0,26.87,East,90,0.0,0.0,37,0.00,,,0.00,Rainwise IP-100,2013-06-17 04:31:00,
2013-06-16 22:36:00,66.0,39.0,26.87,East,90,0.0,0.0,38,0.00,,,0.00,Rainwise IP-100,2013-06-17 04:36:00,
2013-06-16 22:41:00,66.0,41.0,26.89,East,90,0.0,0.0,40,0.00,,,0.00,Rainwise IP-100,2013-06-17 04:41:00,
2013-06-16 22:46:00,65.0,40.0,26.89,East,90,2.0,4.0,41,0.00,,,0.00,Rainwise IP-100,2013-06-17 04:46:00,
2013-06-16 22:51:00,65.0,41.0,26.89,SE,135,1.0,5.0,42,0.00,,,0.00,Rainwise IP-100,2013-06-17 04:51:00,
2013-06-16 22:56:00,65.0,41.0,26.89,SSE,157,2.0,6.0,42,0.00,,,0.00,Rainwise IP-100,2013-06-17 04:56:00,
2013-06-16 23:01:00,65.0,40.0,26.89,SSE,157,0.0,4.0,41,0.00,,,0.00,Rainwise IP-100,2013-06-17 05:01:00,
2013-06-16 23:06:00,64.0,40.0,26.89,SSE,157,0.0,1.0,42,0.00,,,0.00,Rainwise IP-100,2013-06-17 05:06:00,
2013-06-16 23:11:00,64.0,40.0,26.89,ESE,112,0.0,3.0,42,0.00,,,0.00,Rainwise IP-100,2013-06-17 05:11:00,
2013-06-16 23:16:00,64.0,40.0,26.89,ESE,112,0.0,2.0,42,0.00,,,0.00,Rainwise IP-100,2013-06-17 05:16:00,
2013-06-16 23:21:00,64.0,40.0,26.90,ENE,67,0.0,3.0,42,0.00,,,0.00,Rainwise IP-100,2013-06-17 05:21:00,
2013-06-16 23:26:00,63.0,41.0,26.90,ENE,67,0.0,0.0,44,0.00,,,0.00,Rainwise IP-100,2013-06-17 05:26:00,
2013-06-16 23:31:00,63.0,41.0,26.90,SE,135,2.0,4.0,45,0.00,,,0.00,Rainwise IP-100,2013-06-17 05:31:00,
2013-06-16 23:36:00,64.0,41.0,26.90,ESE,112,2.0,6.0,44,0.00,,,0.00,Rainwise IP-100,2013-06-17 05:36:00,
2013-06-16 23:41:00,64.0,40.0,26.90,SE,135,4.0,5.0,42,0.00,,,0.00,Rainwise IP-100,2013-06-17 05:41:00,
2013-06-16 23:46:00,63.0,40.0,26.90,SSE,157,0.0,4.0,43,0.00,,,0.00,Rainwise IP-100,2013-06-17 05:46:00,
2013-06-16 23:51:00,63.0,39.0,26.90,NE,45,0.0,3.0,41,0.00,,,0.00,Rainwise IP-100,2013-06-17 05:51:00,
2013-06-16 23:56:00,63.0,40.0,26.90,South,180,3.0,7.0,43,0.00,,,0.00,Rainwise IP-100,2013-06-17 05:56:00,